Location: Newark
(48.9711°N, 7.9892°E)
Time: 10:54:39
(UTC+00:00)

N. Korean satellite - Visible Passes

Search period start: 15 October 2019 00:00
Search period end: 25 October 2019 00:00
Orbit: 455 x 508 km, 97.2° (Epoch: 14 October)

Date Brightness Start Highest point End Pass type
(mag) Time Alt. Az. Time Alt. Az. Time Alt. Az.
15 Oct 10.1 17:35:20 10° SW 17:37:21 15° W 17:39:25 10° NW visible
16 Oct 8.8 04:56:02 10° NNE 04:59:15 31° E 05:02:30 10° SSE visible
16 Oct 9.0 17:08:53 10° SSW 17:11:52 28° W 17:14:54 10° NW visible
17 Oct 9.9 04:31:23 10° NE 04:33:47 17° E 04:36:13 10° SE visible
19 Oct 7.7 05:13:18 10° NNE 05:16:50 50° E 05:20:22 10° S visible
19 Oct 9.8 17:27:04 10° SW 17:29:29 18° W 17:31:56 10° NW visible
20 Oct 9.2 04:48:20 10° NE 04:51:25 26° E 04:54:32 10° SSE visible
20 Oct 8.5 17:00:52 10° SSW 17:04:01 34° W 17:07:13 10° NNW visible
21 Oct 10.1 04:23:53 10° NE 04:25:56 14° E 04:27:59 10° SE visible
22 Oct 10.3 17:45:50 10° WSW 17:47:07 12° W 17:48:24 10° WNW visible
23 Oct 8.2 05:05:31 10° NNE 05:08:59 41° E 05:12:29 10° S visible
23 Oct 9.5 17:18:50 10° SSW 17:21:34 22° W 17:24:21 10° NW visible
24 Oct 9.5 04:40:38 10° NE 04:43:33 22° E 04:46:28 10° SE visible
24 Oct 8.0 16:52:50 10° S 16:56:07 42° W 16:59:28 10° NNW visible
